Tracking 20472 objects as of 28-Feb-2020
HD Live streaming from Space Station
objects crossing your sky now

CHINASAT 20

Track CHINASAT 20 now!
CHINASAT 20 is classified as:


NORAD ID: 28082
Int'l Code: 2003-052A
Perigee: 36,108.7 km
Apogee: 36,135.6 km
Inclination: 5.5 °
Period: 1,452.9 minutes
Semi major axis: 42493 km
RCS: 12.5893 m2 (large)
Launch date: November 14, 2003
Source: People's Republic of China (PRC)
Launch site: Xichang Space Center, China (XSC)

Dedicated military communications satellite.
aabbcc
Your satellite tracking list
Your tracking list is empty




NASA's NSSDC Master Catalog

Two Line Element Set (TLE):
1 28082U 03052A   20058.85284894 -.00000193  00000-0  00000+0 0  9996
2 28082   5.4736  66.7279 0003172 338.8672   1.0554  0.99111622 59587
Source of the keplerian elements: AFSPC